COSMOS 1275 DEB, 18505

Orbit data source: Space-Track

COSMOS 1275 DEB, 18505 is space debris in LEO originally from a launch on Thu, 04 Jun 1981 UTC launched from the Plesetsk Missile And Space Complex (PKMTR). Debris objects in space refer to the collection of defunct objects orbiting the Earth. Examples of debris include non-operational satellites, rocket bodies, and fragments generated from explosions, collisions, or faulty payload assembly.

Loading next visibility...
Identifier
18505, 1981-053LS
Orbit
LEO
Country
Flag of CISCIS
Related business
Manufacturer
Unknown
Mission
Spacecraft
Bus & Motor
Unknown
Mass
Unknown
Launch date (UTC)
1981-06-04 (45 years ago)
Launch vehicle
Unknown
Launch site
Plesetsk Missile And Space Complex (PKMTR)
Object type
Payload
Rocket body
Debris
Shape & HBR
Unknown shape, 0.1 m
Radar Cross Section
Medium (>0.1 m² and <1 m²)

Expand to show TLE details & history
Last TLE update: 1 day ago

TLE from 1 day ago
0 COSMOS 1275 DEB
1 18505U 81053LS  26254.30279368  .00000848  00000-0  54222-3 0  9991
2 18505  83.2884  16.6541 0069721  70.7317 290.1379 14.01107644 85368
Epoch: 2026-09-11T07:16Z
TLE epoch observation values (Epoch: 2026-09-11T07:16:01.373Z)
Latitude
-0.00008°
Longitude
-82.67972°
Altitude
875.77 km
Speed
7.423 km/s
True Right ascension
01h 06m 36s
True Declination
0° 00' 00"
Sunlit
Object was in full shadow at epoch
Visualization orbit readout
Latitude
Unknown
Longitude
Unknown
Altitude
Unknown
Speed
Unknown
Apparent Right ascension
Unknown
Apparent Declination
Unknown
Sunlit
N/A
Visualization observer readout
Local Sidereal Time
03:50:00
Azimuth
Unknown
Elevation
Unknown
Doppler factor
Unknown
Orbital elements
Apogee altitude
937.715 km
Perigee altitude
836.408 km
Semi-major axis
7,265.199 km
Eccentricity
0.00697
Inclination
83.2884°
RAAN
16.6541°
Arg. of periapsis
70.7317°
True anomaly
289.38556°
Mean anomaly
290.1379°
Eccentric anomaly
289.76195°
Mean motion
3.50487 °/min
Orbital period
102.71 mins
BSTAR
0.00054222
Loading maneuver chart data...
Computing Atmospheric mass density...
Loading historical data...
Loading historical data...
Loading historical data...
Loading historical data...
Loading historical data...
Loading historical data...
Loading historical data...

Documentation

Showing up to 5 results
|